Akron, CO

9:40 PM MDT on September 20, 2017 (GMT -0600)
Akron-Washington County

Weather History for KAKO - August, 2012

Change the Weather History Date:

Thursday, August 9, 2012

  Actual Average Record
Temperature  
Mean Temperature 72 °F 73 °F  
Max Temperature 87 °F 87 °F 102 °F (1937)
Min Temperature 56 °F 60 °F 45 °F (1939)
Degree Days  
Heating Degree Days 0    
Month to date heating degree days 0  
Cooling Degree Days 7    
Month to date cooling degree days 109  
Growing Degree Days 21 (Base 50)    
Moisture  
Dew Point 48 °F    
Average Humidity 51    
Maximum Humidity 77    
Minimum Humidity 24    
Precipitation  
Precipitation 0.00 in 0.08 in 0.69 in (1966)
Month to date precipitation 0.08 0.80  
Year to date precipitation 6.29 11.99  
Sea Level Pressure  
Sea Level Pressure 30.07 in    
Wind  
Wind Speed 11 mph (ESE)    
Max Wind Speed 22 mph    
Max Gust Speed 28 mph    
Visibility 10 miles    
Events      
T = Trace of Precipitation, MM = Missing Value Source: NWS Daily Summary

Daily Weather History Graph

Daily Weather History Graph

Search for Another Location

Airport or City:

Trip Planner

Search our weather history database for the weather conditions in past years. The results will help you decide how hot, cold, wet, or windy it might be!

Date:

Astronomy

Aug. 09, 2012 Rise Set
Actual Time 5:58 AM MDT 7:56 PM MDT
Civil Twilight 5:29 AM MDT 8:26 PM MDT
Nautical Twilight 4:53 AM MDT 9:02 PM MDT
Astronomical Twilight 4:14 AM MDT 9:41 PM MDT
Moon 11:49 PM MDT (8/9) 1:43 PM MDT (8/9)
Length of Visible Light 14h 57m
Length of Day
13h 58m
Waning Gibbous, 50% of the Moon is Illuminated
Aug 9
Waning Gibbous
Aug 9
Last Quarter
Aug 17
New
Aug 24
First Quarter
Aug 31
Full

Hourly Weather History & Observations

Time (MDT) Temp. Dew Point Humidity Pressure Visibility Wind Dir Wind Speed Gust Speed Precip Events Conditions
12:53 AM 64.0 °F 45.0 °F 50% 30.09 in 10.0 mi ESE 9.2 mph - N/A   Clear
1:53 AM 63.0 °F 46.9 °F 56% 30.08 in 10.0 mi ESE 9.2 mph - N/A   Clear
2:53 AM 62.1 °F 46.9 °F 58% 30.08 in 10.0 mi SE 9.2 mph - N/A   Clear
3:53 AM 60.1 °F 46.9 °F 62% 30.09 in 10.0 mi ESE 10.4 mph - N/A   Clear
4:53 AM 57.9 °F 48.0 °F 70% 30.09 in 10.0 mi ESE 9.2 mph - N/A   Clear
5:53 AM 55.9 °F 48.0 °F 75% 30.10 in 10.0 mi ESE 8.1 mph - N/A   Clear
6:53 AM 57.9 °F 50.0 °F 75% 30.11 in 10.0 mi East 5.8 mph - N/A   Clear
7:53 AM 63.0 °F 54.0 °F 72% 30.12 in 10.0 mi ESE 6.9 mph - N/A   Clear
8:53 AM 68.0 °F 54.0 °F 61% 30.12 in 10.0 mi SE 9.2 mph - N/A   Clear
9:53 AM 72.0 °F 54.0 °F 53% 30.12 in 10.0 mi ESE 11.5 mph - N/A   Clear
10:53 AM 75.9 °F 48.9 °F 38% 30.10 in 10.0 mi ESE 11.5 mph - N/A   Clear
11:53 AM 79.0 °F 48.0 °F 34% 30.09 in 10.0 mi ESE 15.0 mph 21.9 mph N/A   Clear
12:53 PM 81.0 °F 48.0 °F 31% 30.07 in 10.0 mi East 13.8 mph 21.9 mph N/A   Clear
1:53 PM 84.0 °F 48.0 °F 28% 30.05 in 10.0 mi ESE 16.1 mph 23.0 mph N/A   Clear
2:53 PM 86.0 °F 46.9 °F 26% 30.03 in 10.0 mi SE 19.6 mph 25.3 mph N/A   Clear
3:53 PM 87.1 °F 46.0 °F 24% 30.01 in 10.0 mi ESE 16.1 mph 24.2 mph N/A   Clear
4:53 PM 86.0 °F 46.9 °F 26% 30.01 in 10.0 mi ESE 17.3 mph - N/A   Clear
5:53 PM 84.9 °F 45.0 °F 25% 30.01 in 10.0 mi ESE 19.6 mph 27.6 mph N/A   Clear
6:53 PM 82.0 °F 43.0 °F 25% 30.02 in 10.0 mi ESE 15.0 mph - N/A   Clear
7:53 PM 75.9 °F 45.0 °F 33% 30.04 in 10.0 mi ESE 12.7 mph - N/A   Clear
8:53 PM 73.0 °F 45.0 °F 37% 30.05 in 10.0 mi ESE 13.8 mph - N/A   Clear
9:53 PM 70.0 °F 46.0 °F 42% 30.07 in 10.0 mi East 17.3 mph 23.0 mph N/A   Clear
10:53 PM 68.0 °F 46.9 °F 47% 30.06 in 10.0 mi ESE 16.1 mph - N/A   Clear
11:53 PM 66.0 °F 46.0 °F 48% 30.07 in 10.0 mi ESE 15.0 mph - N/A   Clear